Вернуться в каталог

TIANQI 35

АктивенСвязьLEO
NORAD 62367·PAYLOAD·🇨🇳 China

Запущен Dec 19, 2024 с Yellow Sea Launch Area

Loading…

Ближайшие Пролёты (ближайшие 24 часа)

TLE

СвежийSource: Space-Track

Эпоха: Sep 14, 2026, 21:11 UTC

1 62367U 24245C   26257.88272193 -.00000021  00000-0  73595-4 0  9990
2 62367  44.9846 282.6250 0008088  60.8337 299.3304 13.99219199 88905

Отслеживайте TIANQI 35 в реальном времени с AllMySat

Download on the App Store